Location: Boursonne
(49.2024°N, 3.0468°E)
Time: 23:56:53
(UTC+00:00)

IRS-1A Rocket - Pass Details

Date: 03 March 2021
Orbit: 851 x 931 km, 99.2° (Epoch: 14 April)

Event Time Altitude Azimuth Distance (km) Brightness Sun altitude
Exits shadow 19:46:41 21° 167° (SSE) 1,854 5.7 -22.2°
Maximum altitude 19:50:33 83° 254° (WSW) 884 4.2 -22.8°
Drops below altitude 10° 19:56:08 10° 343° (NNW) 2,510 7.1 -23.7°
Sets 19:58:31 0° 344° (NNW) 3,445 7.8 -24.0°
